Simultaneous Nadir Overpasses (SNOs) Predictions

Prediction of SNOs between METOP-B and TERRA Satellite Orbit:

Table of predicted SNOs for the next 14.0 days since TLE Epoch: 9/9/2023
Index Date (METOP-B) Time (METOP-B) Lat,Lon (METOP-B) SZA (METOP-B ) Date (TERRA) Time (TERRA) Lat,Lon (TERRA) SZA (TERRA ) Distance(km) Time Diff (sec)
1 09/11/2023 01:07:30 80.66,-167.46 77.19 09/11/2023 01:08:22 80.66,-167.36 77.22 1.73 52
2 09/11/2023 01:58:07 -80.75, 1.22 102.61 09/11/2023 01:57:41 -80.75, 1.22 102.62 0.03 26
3 09/13/2023 17:19:03 80.73, -49.32 78.37 09/13/2023 17:19:02 80.72, -49.39 78.36 1.38 1
4 09/16/2023 08:40:00 -80.67,-100.42 100.72 09/16/2023 08:40:22 -80.68,-100.24 100.70 3.15 22
5 09/16/2023 09:30:36 80.77, 68.43 79.51 09/16/2023 09:29:41 80.77, 68.43 79.49 0.31 55
6 09/19/2023 00:00:54 80.69,-150.43 80.35 09/19/2023 00:01:41 80.68,-150.59 80.35 3.05 47
7 09/19/2023 00:51:34 -80.71, 17.29 99.59 09/19/2023 00:51:02 -80.72, 17.46 99.58 3.08 32
8 09/21/2023 15:21:51 -80.65, 158.76 98.70 09/21/2023 15:23:01 -80.64, 158.68 98.68 1.57 70



Historial Predications of SNOs between METOP-B and TERRA
